sat.trackr.live / text

‹ back to catalog

STARLINK-11370 [DTC]

NORAD 61584 · 2024-187L

PAYLOAD ACTIVE UNKNOWN

§ Identity

Operator
Country
US
Launch date
2024-10-18
Launch site
AFETR
Launch vehicle
Mass (kg)
RCS (m²)

Purposes: comms

External: N2YO · Heavens-Above · Gunter

§ Orbital elements

Epoch: 2026-05-24T19:29:56.558688Z

Period
91.74 min
Inclination
53.1589°
Eccentricity
0.0000717
Mean motion
15.69720519 rev/d
Perigee alt
359.2 km
Apogee alt
360.2 km
Semi-major
6,737.8 km
B*
-5.5373e-7
RAAN
281.1838°
Arg perigee
64.1012°
Mean anomaly
296.0079°
Rev number
9,270

§ Raw data

STARLINK-11370 [DTC]1 61584U 24187L   26144.81246017 -.00000655  00000+0 -55373-6 0  99982 61584  53.1589 281.1838 0000717  64.1012 296.0079 15.69720519 92703

JSON: /api/v1/satellites/61584 · /tle

For live sub-satellite position, see the globe view (requires WebGL).

§ Visibility from observer

Set your observer location to see the next 7 days of passes ≥ 10°. The values pass through the URL so the page stays shareable.

No JS? Fill the form by hand. The geolocation button needs JavaScript.